• Join FlightAware (Why Join?)
  • Login
  • US Flag GB Flag 
11:01 EST


 

Airport Tracker/Info


-or-


 

Live Flight TrackerFlight Track Log ✈ SWA407 ✈ 12-Apr-2013 ✈ KBUF - KBWI

Flight Track Log - Related Links

Times and Time Zones

All times are in EDT time to prevent confusion due to time zone crossing. See the SWA407 flight status page for this flight to view local times or setup timezone preferences in your user account.

Time Position Orientation Groundspeed Altitude Reporting Facility
EDT Latitude Longitude Course Direction KTS MPH feet Rate Location/Type
19:13 42.9333 -78.7333 193° South 133 153 2,200  Level Buffalo TRACON
19:15 42.8253 -78.7686 193° South 212 244 7,300 2,460 Climbing Cleveland Center
19:16 42.7583 -78.7481 167° South 251 289 10,000 2,640 Climbing Cleveland Center
19:17 42.6706 -78.7308 172° South 284 327 12,600 3,240 Climbing Cleveland Center
19:18 42.5639 -78.7114 172° South 328 377 16,500 3,600 Climbing Cleveland Center
19:19 42.4678 -78.6917 171° South 348 400 19,900 3,300 Climbing Cleveland Center
19:20 42.3753 -78.6494 161° South 354 407 23,200 2,520 Climbing Cleveland Center
19:21 42.2967 -78.5619 141° Southeast 349 402 25,000 900 Climbing Cleveland Center
19:22 42.2158 -78.4692 140° Southeast 369 425 25,000  Level Cleveland Center
19:23 42.1411 -78.3878 141° Southeast 379 436 25,000  Level Cleveland Center
19:24 42.0622 -78.2925 138° Southeast 385 443 25,000  Level Cleveland Center
19:25 41.9772 -78.2175 147° Southeast 385 443 25,000  Level Cleveland Center
19:26 41.8861 -78.2458 193° South 318 366 25,000  Level Cleveland Center
19:27 41.7911 -78.2883 198° South 326 375 25,000  Level Cleveland Center
19:28 41.6981 -78.3278 198° South 345 397 25,000  Level Cleveland Center
19:29 41.6050 -78.3700 199° South 357 411 25,000  Level Cleveland Center
19:30 41.5119 -78.4092 197° South 357 411 25,000  Level Cleveland Center
19:31 41.4169 -78.4456 196° South 362 417 25,000  Level Cleveland Center
19:32 41.3164 -78.4239 171° South 348 400 25,000  Level Cleveland Center
19:33 41.2200 -78.4050 172° South 353 406 25,000 -240 Level Cleveland Center
19:34 41.1236 -78.3778 168° South 353 406 24,600 -720 Descending Cleveland Center
19:35 41.0336 -78.3506 167° South 353 406 23,600 -840 Descending Cleveland Center
19:36 40.9392 -78.3208 167° South 353 406 23,000 -300 Descending Cleveland Center
19:37 40.8425 -78.2886 166° South 353 406 23,000  Level Cleveland Center
19:38 40.7461 -78.2617 168° South 359 413 23,000  Level Cleveland Center
19:39 40.6517 -78.2322 167° South 353 406 23,000  Level Cleveland Center
19:40 40.5572 -78.2056 168° South 353 406 23,000  Level Cleveland Center
19:41 40.4628 -78.1733 165° South 353 406 23,000  Level Cleveland Center
19:42 40.3664 -78.1442 167° South 353 406 23,000  Level Cleveland Center
19:45 40.1361 -78.0769 167° South 328 377 23,000  Level Washington Center
19:46 40.0678 -78.0583 168° South 288 331 23,000  Level Washington Center
19:47 39.9972 -78.0342 165° South 268 308 23,000 -300 Level Washington Center
19:48 39.9144 -78.0097 167° South 276 318 22,500 -1,020 Descending Washington Center
19:49 39.8275 -77.9853 168° South 308 354 21,000 -1,680 Descending Washington Center
19:50 39.7406 -77.9581 166° South 320 368 19,200 -2,040 Descending Washington Center
19:51 39.6578 -77.9311 166° South 320 368 17,000 -1,860 Descending Washington Center
19:52 39.5769 -77.9017 164° South 310 357 15,500 -1,200 Descending Washington Center
19:53 39.5353 -77.7844 115° Southeast 304 350 14,600 -960 Descending Washington Center
19:54 39.5083 -77.6572 105° East 334 384 13,600 -1,320 Descending Washington Center
19:55 39.4792 -77.5328 107° East 345 397 12,000 -1,260 Descending Washington Center
19:56 39.4558 -77.4300 106° East 345 397 11,100 -1,020 Descending Washington Center
19:57 39.4500 -77.3500 95° East 316 364 10,400 -1,320 Descending Potomac TRACON
19:58 39.4667 -77.2333 79° East 308 354 9,100 -1,500 Descending Potomac TRACON
19:59 39.4833 -77.1333 78° East 303 349 7,500 -1,500 Descending Potomac TRACON
20:00 39.4833 -77.0333 90° East 300 345 6,100 -1,500 Descending Potomac TRACON
20:01 39.4167 -76.9667 142° Southeast 280 322 4,500 -1,080 Descending Potomac TRACON
20:02 39.3500 -76.9333 159° South 253 291 4,000 -300 Descending Potomac TRACON
20:03 39.3000 -76.9667 207° Southwest 188 216 4,000  Level Potomac TRACON
20:04 39.2667 -76.9833 201° Southwest 178 205 4,000 -600 Level Potomac TRACON
20:05 39.2167 -77.0167 207° Southwest 193 222 2,900 -780 Descending Potomac TRACON
20:06 39.2000 -76.9500 108° East 188 216 2,500 -240 Descending Potomac TRACON
20:07 39.1833 -76.8833 108° East 183 211 2,500 -480 Level Potomac TRACON
20:09 39.1833 -76.7500 90° East 151 174 1,100 -720 Descending Potomac TRACON
20:10 39.1833 -76.7000 90° East 135 155 400 -720 Descending Potomac TRACON
20:12 39.1667 -76.6667 95° East  Level FlightAware Approximate
20:19 39.1754 -76.6683 95° East  Level Estimated